Time,TemperatureF,DewpointF,PressureIn,WindDirection,WindDirectionDegrees,WindSpeedMPH,WindSpeedGustMPH,Humidity,HourlyPrecipIn,Conditions,Clouds,dailyrainin,SoftwareType,DateUTC
2013-06-23 00:13:00,-999.0,-99.9,30.09,North,-999,-999.0,-999.0,-999,0.00,,,0.00,weatherlink.com 1.10,2013-06-23 04:13:00,
2013-06-23 00:28:00,-999.0,-99.9,30.10,North,-999,-999.0,-999.0,-999,0.00,,,0.00,weatherlink.com 1.10,2013-06-23 04:28:00,
2013-06-23 00:43:00,-999.0,-99.9,30.09,North,-999,-999.0,-999.0,-999,0.00,,,0.00,weatherlink.com 1.10,2013-06-23 04:43:00,
2013-06-23 00:58:00,-999.0,-99.9,30.10,North,-999,-999.0,-999.0,-999,0.00,,,0.00,weatherlink.com 1.10,2013-06-23 04:58:00,
2013-06-23 01:13:00,-999.0,-99.9,30.09,North,-999,-999.0,-999.0,-999,0.00,,,0.00,weatherlink.com 1.10,2013-06-23 05:13:00,
2013-06-23 01:28:00,-999.0,-99.9,30.09,North,-999,-999.0,-999.0,-999,0.00,,,0.00,weatherlink.com 1.10,2013-06-23 05:28:00,
2013-06-23 01:43:00,-999.0,-99.9,30.09,North,-999,-999.0,-999.0,-999,0.00,,,0.00,weatherlink.com 1.10,2013-06-23 05:43:00,
2013-06-23 01:58:00,-999.0,-99.9,30.09,North,-999,-999.0,-999.0,-999,0.00,,,0.00,weatherlink.com 1.10,2013-06-23 05:58:00,
2013-06-23 02:13:00,-999.0,-99.9,30.09,North,-999,-999.0,-999.0,-999,0.00,,,0.00,weatherlink.com 1.10,2013-06-23 06:13:00,
2013-06-23 02:29:00,-999.0,-99.9,30.08,North,-999,-999.0,-999.0,-999,0.00,,,0.00,weatherlink.com 1.10,2013-06-23 06:29:00,
2013-06-23 02:44:00,-999.0,-99.9,30.08,North,-999,-999.0,-999.0,-999,0.00,,,0.00,weatherlink.com 1.10,2013-06-23 06:44:00,
2013-06-23 02:59:00,-999.0,-99.9,30.09,North,-999,-999.0,-999.0,-999,0.00,,,0.00,weatherlink.com 1.10,2013-06-23 06:59:00,
2013-06-23 03:14:00,-999.0,-99.9,30.08,North,-999,-999.0,-999.0,-999,0.00,,,0.00,weatherlink.com 1.10,2013-06-23 07:14:00,
2013-06-23 03:29:00,-999.0,-99.9,30.08,North,-999,-999.0,-999.0,-999,0.00,,,0.00,weatherlink.com 1.10,2013-06-23 07:29:00,
2013-06-23 03:44:00,-999.0,-99.9,30.08,North,-999,-999.0,-999.0,-999,0.00,,,0.00,weatherlink.com 1.10,2013-06-23 07:44:00,
2013-06-23 03:59:00,-999.0,-99.9,30.08,North,-999,-999.0,-999.0,-999,0.00,,,0.00,weatherlink.com 1.10,2013-06-23 07:59:00,
2013-06-23 04:14:00,-999.0,-99.9,30.08,North,-999,-999.0,-999.0,-999,0.00,,,0.00,weatherlink.com 1.10,2013-06-23 08:14:00,
2013-06-23 04:29:00,-999.0,-99.9,30.08,North,-999,-999.0,-999.0,-999,0.00,,,0.00,weatherlink.com 1.10,2013-06-23 08:29:00,
2013-06-23 04:44:00,-999.0,-99.9,30.09,North,-999,-999.0,-999.0,-999,0.00,,,0.00,weatherlink.com 1.10,2013-06-23 08:44:00,
2013-06-23 04:59:00,-999.0,-99.9,30.09,North,-999,-999.0,-999.0,-999,0.00,,,0.00,weatherlink.com 1.10,2013-06-23 08:59:00,
2013-06-23 05:14:00,-999.0,-99.9,30.09,North,-999,-999.0,-999.0,-999,0.00,,,0.00,weatherlink.com 1.10,2013-06-23 09:14:00,
2013-06-23 05:29:00,-999.0,-99.9,30.10,North,-999,-999.0,-999.0,-999,0.00,,,0.00,weatherlink.com 1.10,2013-06-23 09:29:00,
2013-06-23 05:44:00,-999.0,-99.9,30.11,North,-999,-999.0,-999.0,-999,0.00,,,0.00,weatherlink.com 1.10,2013-06-23 09:44:00,
2013-06-23 06:00:00,-999.0,-99.9,30.11,North,-999,-999.0,-999.0,-999,0.00,,,0.00,weatherlink.com 1.10,2013-06-23 10:00:00,
2013-06-23 06:15:00,-999.0,-99.9,30.11,North,-999,-999.0,-999.0,-999,0.00,,,0.00,weatherlink.com 1.10,2013-06-23 10:15:00,
2013-06-23 06:30:00,-999.0,-99.9,30.11,North,-999,-999.0,-999.0,-999,0.00,,,0.00,weatherlink.com 1.10,2013-06-23 10:30:00,
2013-06-23 06:45:00,-999.0,-99.9,30.11,North,-999,-999.0,-999.0,-999,0.00,,,0.00,weatherlink.com 1.10,2013-06-23 10:45:00,
2013-06-23 07:00:00,-999.0,-99.9,30.11,North,-999,-999.0,-999.0,-999,0.00,,,0.00,weatherlink.com 1.10,2013-06-23 11:00:00,
2013-06-23 07:15:00,-999.0,-99.9,30.12,North,-999,-999.0,-999.0,-999,0.00,,,0.00,weatherlink.com 1.10,2013-06-23 11:15:00,
2013-06-23 07:30:00,-999.0,-99.9,30.12,North,-999,-999.0,-999.0,-999,0.00,,,0.00,weatherlink.com 1.10,2013-06-23 11:30:00,
2013-06-23 07:45:00,-999.0,-99.9,30.12,North,-999,-999.0,-999.0,-999,0.00,,,0.00,weatherlink.com 1.10,2013-06-23 11:45:00,
2013-06-23 08:00:00,-999.0,-99.9,30.12,North,-999,-999.0,-999.0,-999,0.00,,,0.00,weatherlink.com 1.10,2013-06-23 12:00:00,
2013-06-23 08:15:00,-999.0,-99.9,30.12,North,-999,-999.0,-999.0,-999,0.00,,,0.00,weatherlink.com 1.10,2013-06-23 12:15:00,
2013-06-23 08:30:00,73.5,69.0,30.12,ESE,105,1.0,2.0,85,0.00,,,0.00,weatherlink.com 1.10,2013-06-23 12:30:00,
2013-06-23 08:45:00,74.4,69.0,30.12,ESE,110,2.0,3.0,83,0.00,,,0.00,weatherlink.com 1.10,2013-06-23 12:45:00,
2013-06-23 09:00:00,76.6,70.0,30.12,ESE,112,0.0,1.0,79,0.00,,,0.00,weatherlink.com 1.10,2013-06-23 13:00:00,
2013-06-23 09:15:00,78.7,70.0,30.12,ESE,120,0.0,3.0,74,0.00,,,0.00,weatherlink.com 1.10,2013-06-23 13:15:00,
2013-06-23 09:31:00,80.1,70.0,30.12,SE,125,2.0,2.0,70,0.00,,,0.00,weatherlink.com 1.10,2013-06-23 13:31:00,
2013-06-23 09:46:00,81.0,69.0,30.11,SW,235,5.0,8.0,67,0.00,,,0.00,weatherlink.com 1.10,2013-06-23 13:46:00,
2013-06-23 10:16:00,82.2,69.0,30.11,South,181,0.0,5.0,65,0.00,,,0.00,weatherlink.com 1.10,2013-06-23 14:16:00,
2013-06-23 10:31:00,82.7,69.0,30.11,West,270,0.0,6.0,63,0.00,,,0.00,weatherlink.com 1.10,2013-06-23 14:31:00,
2013-06-23 10:46:00,83.4,69.0,30.11,WSW,255,0.0,6.0,62,0.00,,,0.00,weatherlink.com 1.10,2013-06-23 14:46:00,
2013-06-23 11:01:00,83.1,68.0,30.11,West,264,1.0,10.0,60,0.00,,,0.00,weatherlink.com 1.10,2013-06-23 15:01:00,
2013-06-23 11:16:00,83.3,67.0,30.11,West,280,3.0,6.0,58,0.00,,,0.00,weatherlink.com 1.10,2013-06-23 15:16:00,
2013-06-23 11:46:00,84.8,67.0,30.09,WSW,243,4.0,5.0,55,0.00,,,0.00,weatherlink.com 1.10,2013-06-23 15:46:00,
2013-06-23 12:01:00,85.3,68.0,30.09,West,270,1.0,7.0,57,0.00,,,0.00,weatherlink.com 1.10,2013-06-23 16:01:00,
2013-06-23 12:16:00,85.0,66.0,30.09,North,353,2.0,10.0,53,0.00,,,0.00,weatherlink.com 1.10,2013-06-23 16:16:00,
2013-06-23 12:31:00,85.5,65.0,30.08,West,279,1.0,6.0,51,0.00,,,0.00,weatherlink.com 1.10,2013-06-23 16:31:00,
2013-06-23 12:46:00,85.9,66.0,30.08,West,270,4.0,10.0,51,0.00,,,0.00,weatherlink.com 1.10,2013-06-23 16:46:00,
2013-06-23 13:01:00,85.8,66.0,30.07,SSW,200,1.0,9.0,51,0.00,,,0.00,weatherlink.com 1.10,2013-06-23 17:01:00,
2013-06-23 13:16:00,85.6,66.0,30.07,West,278,5.0,9.0,52,0.00,,,0.00,weatherlink.com 1.10,2013-06-23 17:16:00,
2013-06-23 13:31:00,85.6,66.0,30.06,WSW,253,3.0,9.0,52,0.00,,,0.00,weatherlink.com 1.10,2013-06-23 17:31:00,
2013-06-23 13:46:00,85.9,65.0,30.06,West,260,9.0,15.0,50,0.00,,,0.00,weatherlink.com 1.10,2013-06-23 17:46:00,
2013-06-23 14:01:00,86.1,65.0,30.06,WSW,238,6.0,10.0,49,0.00,,,0.00,weatherlink.com 1.10,2013-06-23 18:01:00,
2013-06-23 14:16:00,86.4,64.0,30.05,WNW,301,5.0,12.0,48,0.00,,,0.00,weatherlink.com 1.10,2013-06-23 18:16:00,
2013-06-23 14:31:00,86.6,64.0,30.05,West,271,2.0,12.0,47,0.00,,,0.00,weatherlink.com 1.10,2013-06-23 18:31:00,
2013-06-23 14:46:00,87.6,63.0,30.04,South,179,5.0,9.0,44,0.00,,,0.00,weatherlink.com 1.10,2013-06-23 18:46:00,
2013-06-23 15:01:00,87.0,65.0,30.04,SW,222,6.0,8.0,48,0.00,,,0.00,weatherlink.com 1.10,2013-06-23 19:01:00,
2013-06-23 15:16:00,87.1,65.0,30.04,SSW,204,5.0,9.0,48,0.00,,,0.00,weatherlink.com 1.10,2013-06-23 19:16:00,
2013-06-23 15:31:00,87.5,66.0,30.04,WNW,288,10.0,11.0,49,0.00,,,0.00,weatherlink.com 1.10,2013-06-23 19:31:00,
2013-06-23 15:46:00,87.0,66.0,30.04,SW,224,4.0,16.0,49,0.00,,,0.00,weatherlink.com 1.10,2013-06-23 19:46:00,
2013-06-23 16:01:00,86.4,64.0,30.03,West,267,8.0,15.0,48,0.00,,,0.00,weatherlink.com 1.10,2013-06-23 20:01:00,
2013-06-23 16:16:00,86.1,67.0,30.03,WSW,248,6.0,13.0,53,0.00,,,0.00,weatherlink.com 1.10,2013-06-23 20:16:00,
2013-06-23 16:31:00,86.3,66.0,30.03,WNW,287,6.0,10.0,50,0.00,,,0.00,weatherlink.com 1.10,2013-06-23 20:31:00,
2013-06-23 16:46:00,85.2,66.0,30.03,WNW,287,7.0,9.0,52,0.00,,,0.00,weatherlink.com 1.10,2013-06-23 20:46:00,
2013-06-23 17:01:00,86.0,66.0,30.03,West,269,5.0,12.0,51,0.00,,,0.00,weatherlink.com 1.10,2013-06-23 21:01:00,
2013-06-23 17:16:00,85.6,66.0,30.02,West,278,6.0,10.0,52,0.00,,,0.00,weatherlink.com 1.10,2013-06-23 21:16:00,
2013-06-23 17:31:00,85.9,65.0,30.02,West,278,7.0,12.0,50,0.00,,,0.00,weatherlink.com 1.10,2013-06-23 21:31:00,
2013-06-23 17:47:00,86.1,66.0,30.02,West,280,7.0,14.0,52,0.00,,,0.00,weatherlink.com 1.10,2013-06-23 21:47:00,
2013-06-23 18:02:00,85.8,66.0,30.01,WNW,297,8.0,10.0,52,0.00,,,0.00,weatherlink.com 1.10,2013-06-23 22:02:00,
2013-06-23 18:17:00,85.9,66.0,30.01,WNW,291,3.0,10.0,52,0.00,,,0.00,weatherlink.com 1.10,2013-06-23 22:17:00,
2013-06-23 18:32:00,86.2,66.0,30.00,West,276,6.0,10.0,51,0.00,,,0.00,weatherlink.com 1.10,2013-06-23 22:32:00,
2013-06-23 18:47:00,85.4,67.0,30.01,SW,227,3.0,9.0,54,0.00,,,0.00,weatherlink.com 1.10,2013-06-23 22:47:00,
2013-06-23 19:02:00,86.0,66.0,30.00,West,270,5.0,9.0,51,0.00,,,0.00,weatherlink.com 1.10,2013-06-23 23:02:00,
2013-06-23 19:17:00,85.5,66.0,30.00,WNW,284,7.0,8.0,52,0.00,,,0.00,weatherlink.com 1.10,2013-06-23 23:17:00,
2013-06-23 19:32:00,84.9,66.0,30.01,West,278,3.0,6.0,54,0.00,,,0.00,weatherlink.com 1.10,2013-06-23 23:32:00,
2013-06-23 19:47:00,85.7,67.0,30.01,WNW,285,2.0,6.0,53,0.00,,,0.00,weatherlink.com 1.10,2013-06-23 23:47:00,
2013-06-23 20:02:00,84.6,68.0,30.02,WNW,285,2.0,5.0,57,0.00,,,0.00,weatherlink.com 1.10,2013-06-24 00:02:00,
2013-06-23 20:17:00,83.5,68.0,30.02,West,277,1.0,2.0,59,0.00,,,0.00,weatherlink.com 1.10,2013-06-24 00:17:00,
2013-06-23 20:32:00,82.0,68.0,30.02,West,264,0.0,1.0,63,0.00,,,0.00,weatherlink.com 1.10,2013-06-24 00:32:00,
2013-06-23 20:47:00,79.7,69.0,30.02,ESE,111,0.0,1.0,70,0.00,,,0.00,weatherlink.com 1.10,2013-06-24 00:47:00,
2013-06-23 21:02:00,78.2,69.0,30.02,ESE,108,1.0,1.0,73,0.00,,,0.00,weatherlink.com 1.10,2013-06-24 01:02:00,
2013-06-23 21:17:00,77.1,69.0,30.03,ESE,108,1.0,2.0,76,0.00,,,0.00,weatherlink.com 1.10,2013-06-24 01:17:00,
2013-06-23 21:32:00,76.6,69.0,30.03,East,91,1.0,2.0,77,0.00,,,0.00,weatherlink.com 1.10,2013-06-24 01:32:00,
2013-06-23 21:47:00,75.7,69.0,30.03,East,86,2.0,3.0,79,0.00,,,0.00,weatherlink.com 1.10,2013-06-24 01:47:00,
2013-06-23 22:02:00,75.2,69.0,30.04,East,84,2.0,2.0,81,0.00,,,0.00,weatherlink.com 1.10,2013-06-24 02:02:00,
2013-06-23 22:17:00,74.9,69.0,30.05,East,85,0.0,1.0,81,0.00,,,0.00,weatherlink.com 1.10,2013-06-24 02:17:00,
2013-06-23 22:32:00,74.8,69.0,30.06,East,82,1.0,1.0,81,0.00,,,0.00,weatherlink.com 1.10,2013-06-24 02:32:00,
2013-06-23 22:47:00,74.4,69.0,30.06,East,82,0.0,1.0,82,0.00,,,0.00,weatherlink.com 1.10,2013-06-24 02:47:00,
2013-06-23 23:02:00,74.0,69.0,30.06,East,82,1.0,2.0,83,0.00,,,0.00,weatherlink.com 1.10,2013-06-24 03:02:00,
2013-06-23 23:17:00,73.6,69.0,30.07,East,82,0.0,1.0,84,0.00,,,0.00,weatherlink.com 1.10,2013-06-24 03:17:00,
2013-06-23 23:32:00,73.2,69.0,30.07,East,82,0.0,1.0,85,0.00,,,0.00,weatherlink.com 1.10,2013-06-24 03:32:00,
2013-06-23 23:47:00,73.1,69.0,30.07,East,84,1.0,2.0,86,0.00,,,0.00,weatherlink.com 1.10,2013-06-24 03:47:00,